DW5212 Weather Reports


time (UTC)temp
C
wind
direction
speed
KPH
gust
KPH
rain 1hr
cm
rain 24hr
cm
rain mn
cm
humidity
%
barometer
mb
20260903074503 23 79 0.0 0.0 0.00 1.14 0.00 95 1014.9
20260903074002 23 79 0.0 0.0 0.00 1.14 0.00 95 1014.9
20260903073502 23 79 0.0 0.0 0.00 1.14 0.00 95 1014.9
20260903073003 23 79 0.0 0.0 0.00 1.14 0.00 95 1014.9
20260903072503 23 79 0.0 0.0 0.00 1.14 0.00 95 1014.9
20260903072003 23 79 0.0 0.0 0.00 1.14 0.00 95 1014.9
20260903071503 23 79 0.0 0.0 0.00 1.14 0.00 95 1015.0
20260903070502 23 79 0.0 0.0 0.00 1.14 0.00 95 1015.0
20260903065503 23 85 0.0 0.0 0.00 1.14 0.00 95 1015.0
20260903065002 23 86 0.0 0.0 0.00 1.14 0.00 95 1015.2
20260903064503 23 192 0.0 0.0 0.00 1.14 0.00 95 1015.2
20260903064003 23 192 0.0 0.0 0.00 1.14 0.00 95 1015.1
20260903063004 23 192 0.0 0.0 0.00 1.14 0.00 95 1015.3
20260903062003 23 192 0.0 0.0 0.00 1.14 0.00 95 1015.2
20260903061503 23 192 0.0 0.0 0.00 1.14 0.00 95 1015.3
20260903061003 23 192 0.0 0.0 0.00 1.14 0.00 95 1015.4
20260903060502 23 192 0.0 0.0 0.00 1.14 0.00 95 1015.6
20260903060006 23 192 0.0 0.0 0.00 1.14 0.00 95 1015.6
20260903055503 23 188 0.0 0.0 0.00 1.14 0.00 95 1015.5
20260903055004 23 188 0.0 0.0 0.00 1.14 0.00 95 1015.6
20260903054005 23 188 0.0 0.0 0.00 1.14 0.00 95 1015.5
20260903053503 23 188 0.0 0.0 0.00 1.14 0.00 95 1015.5
20260903053004 23 188 0.0 0.0 0.00 1.14 0.00 95 1015.5
20260903052004 23 188 0.0 0.0 0.00 1.14 0.00 95 1015.5
20260903051503 23 188 0.0 0.0 0.00 1.14 0.00 95 1015.5
20260903050503 23 188 0.0 0.0 0.00 1.14 0.00 95 1015.5
20260903045503 23 211 0.0 0.0 0.00 1.14 1.14 95 1015.5
20260903045005 23 211 0.0 0.0 0.00 1.14 1.14 95 1015.7
20260903044504 23 211 0.0 0.0 0.00 1.14 1.14 95 1015.6
20260903044004 23 211 0.0 0.0 0.00 1.14 1.14 95 1015.8
20260903043503 23 211 0.0 0.0 0.00 1.14 1.14 95 1015.7
20260903043005 23 211 0.0 0.0 0.00 1.14 1.14 95 1015.7
20260903042503 23 211 0.0 0.0 0.00 1.14 1.14 95 1015.8
20260903042004 24 212 0.0 0.0 0.00 1.14 1.14 94 1015.7
20260903041505 24 211 0.0 0.0 0.00 1.14 1.14 94 1015.8
20260903041004 24 211 0.0 0.0 0.00 1.14 1.14 94 1015.8
20260903040503 24 211 0.0 0.0 0.00 1.14 1.14 94 1015.9
20260903040008 24 211 0.0 0.0 0.00 1.14 1.14 94 1015.9
20260903035503 24 211 0.0 0.0 0.00 1.14 1.14 94 1016.0
20260903035004 24 212 0.0 0.0 0.00 1.14 1.14 94 1015.9
20260903034503 24 211 0.0 0.0 0.00 1.14 1.14 94 1016.0
20260903033504 24 211 0.0 0.0 0.00 1.14 1.14 94 1015.9
20260903033004 24 212 0.0 0.0 0.00 1.14 1.14 94 1015.8
20260903032503 24 211 0.0 0.0 0.00 1.14 1.14 94 1015.8
20260903032004 24 211 0.0 0.0 0.00 1.14 1.14 94 1016.1
20260903031504 24 212 0.0 0.0 0.00 1.14 1.14 94 1016.1
20260903030503 25 211 0.0 0.0 0.00 1.14 1.14 93 1015.8
20260903025502 25 211 0.0 0.0 0.00 1.14 1.14 94 1015.6
20260903025005 25 211 0.0 0.0 0.00 1.14 1.14 94 1015.6
20260903024504 25 211 0.0 0.0 0.00 1.14 1.14 94 1015.5
20260903024003 25 211 0.0 0.0 0.00 1.14 1.14 94 1015.4
20260903023503 25 211 0.0 0.0 0.00 1.14 1.14 94 1015.2
20260903022504 25 212 0.0 0.0 0.00 1.14 1.14 94 1015.2
20260903022004 25 211 0.0 0.0 0.00 1.14 1.14 93 1015.1
20260903021506 25 211 0.0 0.0 0.00 1.14 1.14 93 1015.0
20260903021003 25 211 0.0 0.0 0.00 1.14 1.14 94 1015.0
20260903020502 25 211 0.0 0.0 0.00 1.14 1.14 94 1014.8
20260903020007 25 211 0.0 0.0 0.00 1.14 1.14 94 1014.8
20260903015003 25 211 0.0 0.0 0.00 1.14 1.14 93 1014.7
20260903014503 25 211 0.0 0.0 0.00 1.14 1.14 93 1014.6
20260903014004 25 211 0.0 0.0 0.00 1.14 1.14 93 1014.5
20260903013506 25 211 0.0 0.0 0.00 1.14 1.14 93 1014.8
20260903013006 25 211 0.0 0.0 0.00 1.14 1.14 93 1014.9
20260903012003 25 211 0.0 0.0 0.00 1.14 1.14 92 1015.0
20260903011505 25 211 0.0 0.0 0.00 1.14 1.14 92 1015.0
20260903011004 26 212 0.0 0.0 0.00 1.14 1.14 92 1014.9
20260903010006 26 212 0.0 0.0 0.00 1.14 1.14 92 1015.2
20260903005004 26 211 0.0 0.0 0.00 1.14 1.14 91 1015.2
20260903004503 26 211 0.0 0.0 0.00 1.14 1.14 91 1015.1
20260903004003 26 212 0.0 0.0 0.00 1.14 1.14 91 1015.0
20260903003004 26 211 0.0 0.0 0.00 1.14 1.14 90 1015.0
20260903002503 26 211 0.0 0.0 0.00 1.14 1.14 90 1014.9
20260903001503 26 211 0.0 0.0 0.00 1.14 1.14 90 1014.9
20260903001004 26 212 0.0 0.0 0.00 1.14 1.14 90 1015.0
20260903000503 26 211 0.0 0.0 0.00 1.14 1.14 90 1015.0
20260902235503 26 211 0.0 0.0 0.00 1.14 1.14 89 1014.9
20260902235004 27 212 0.0 0.0 0.00 1.14 1.14 90 1014.9
20260902234503 27 212 0.0 0.0 0.00 1.14 1.14 90 1014.9
20260902234004 27 211 0.0 0.0 0.00 1.14 1.14 89 1015.1
20260902233503 27 211 0.0 0.0 0.00 1.14 1.14 90 1015.1
20260902231504 27 168 0.0 0.0 0.00 1.14 1.14 89 1014.8
20260902231004 27 167 0.0 0.0 0.00 1.14 1.14 88 1014.5
20260902230502 27 257 0.0 0.0 0.00 1.14 1.14 90 1014.7
20260902230007 27 257 0.0 0.0 0.00 1.14 1.14 89 1014.6
20260902225503 27 257 0.0 1.6 0.00 1.14 1.14 89 1014.6
20260902225004 27 257 0.0 3.2 0.00 1.14 1.14 89 1014.7
20260902224504 27 257 0.0 3.2 0.00 1.14 1.14 88 1014.6
20260902224008 27 211 0.0 0.0 0.00 1.14 1.14 88 1014.7
20260902223004 27 217 0.0 3.2 0.00 1.14 1.14 88 1014.8
20260902221504 27 175 0.0 8.0 0.00 1.14 1.14 89 1014.9
20260902221004 27 247 0.0 1.6 0.00 1.14 1.14 90 1014.9
20260902220006 27 247 0.0 1.6 0.00 1.14 1.14 90 1015.0
20260902215503 27 248 0.0 4.8 0.00 1.14 1.14 89 1015.1
20260902215004 27 222 0.0 0.0 0.00 1.14 1.14 89 1015.1
20260902214004 27 240 0.0 0.0 0.00 1.14 1.14 90 1015.1
20260902213503 27 182 0.0 0.0 0.00 1.14 1.14 90 1015.0
20260902213004 27 182 0.0 0.0 0.00 1.14 1.14 91 1015.2
20260902212503 27 169 0.0 0.0 0.00 1.14 1.14 91 1015.2
20260902212004 26 177 0.0 0.0 0.00 1.14 1.14 92 1015.3
20260902211503 26 177 0.0 0.0 0.00 1.14 1.14 92 1015.2
20260902211003 26 177 0.0 0.0 0.00 1.14 1.14 91 1015.5
20260902210502 26 177 0.0 0.0 0.00 1.14 1.14 93 1015.5
20260902210007 26 178 0.0 0.0 0.00 1.14 1.14 92 1015.5
20260902205004 26 177 0.0 0.0 0.00 1.14 1.14 92 1015.7
20260902204505 26 178 0.0 0.0 0.00 1.14 1.14 92 1015.7
20260902204004 26 178 0.0 0.0 0.00 1.14 1.14 93 1015.9
20260902203503 26 178 0.0 0.0 0.00 1.14 1.14 92 1016.1
20260902203005 26 177 0.0 0.0 0.00 1.14 1.14 93 1016.1
20260902202503 26 178 0.0 0.0 0.00 1.14 1.14 93 1016.2
20260902202004 26 177 0.0 0.0 0.00 1.14 1.14 93 1016.3
20260902201503 26 176 0.0 0.0 0.00 1.14 1.14 93 1016.3
20260902201004 26 177 0.0 0.0 0.00 1.14 1.14 93 1016.4
20260902200503 26 76 0.0 0.0 0.00 1.14 1.14 93 1016.5
20260902200006 26 66 0.0 0.0 0.00 1.14 1.14 93 1016.5
20260902195503 25 66 0.0 0.0 0.00 1.14 1.14 93 1016.5
20260902195004 25 66 0.0 1.6 0.00 1.14 1.14 93 1016.5
20260902194503 25 66 1.6 4.8 0.00 1.14 1.14 93 1016.5
20260902194004 25 66 0.0 4.8 0.00 1.14 1.14 93 1016.4
20260902193503 25 45 0.0 1.6 0.03 1.14 1.14 93 1016.3
20260902193006 25 46 0.0 0.0 0.03 1.14 1.14 93 1016.3
20260902192005 25 46 0.0 0.0 0.05 1.14 1.14 93 1016.3
20260902191504 25 44 0.0 1.6 0.15 1.14 1.14 93 1016.3
20260902191003 25 44 0.0 1.6 0.15 1.14 1.14 93 1016.1
20260902190503 25 44 0.0 3.2 0.15 1.14 1.14 93 1016.2
20260902190008 25 45 0.0 3.2 0.15 1.14 1.14 93 1016.3
20260902185503 25 45 0.0 0.0 0.15 1.14 1.14 92 1016.3
20260902185004 25 45 0.0 0.0 0.20 1.14 1.14 92 1016.2
20260902183503 24 45 0.0 3.2 1.12 1.12 1.12 91 1016.6
20260902183005 24 46 1.6 3.2 1.12 1.12 1.12 90 1016.7
20260902182504 25 45 1.6 3.2 1.12 1.12 1.12 90 1016.5
20260902182004 25 46 0.0 3.2 1.09 1.09 1.09 89 1016.7
20260902180503 25 125 1.6 3.2 0.99 0.99 0.99 87 1016.8
20260902180008 26 194 1.6 3.2 0.99 0.99 0.99 85 1016.7
20260902175503 26 197 3.2 6.4 0.99 0.99 0.99 84 1016.7
20260902175007 26 10 3.2 16.1 0.91 0.91 0.91 81 1017.0
20260902174532 27 304 3.2 19.3 0.51 0.51 0.51 78 1017.2
20260902174004 28 184 1.6 19.3 0.18 0.18 0.18 76 1017.5
20260902172503 30 55 1.6 4.8 0.00 0.00 0.00 70 1016.9
20260902172004 31 19 1.6 6.4 0.00 0.00 0.00 69 1016.8
20260902171005 31 51 1.6 9.7 0.00 0.00 0.00 72 1016.7
20260902170504 31 88 1.6 4.8 0.00 0.00 0.00 73 1016.8
20260902170005 31 103 1.6 3.2 0.00 0.00 0.00 74 1016.8
20260902165502 31 168 1.6 8.0 0.00 0.00 0.00 76 1016.8
20260902165003 31 67 1.6 8.0 0.00 0.00 0.00 77 1017.2
20260902164003 30 36 1.6 3.2 0.00 0.00 0.00 76 1017.4
20260902163502 30 342 1.6 9.7 0.00 0.00 0.00 76 1017.4
20260902163004 31 99 1.6 9.7 0.00 0.00 0.00 76 1017.4
20260902162503 31 112 1.6 4.8 0.00 0.00 0.00 77 1017.3
20260902162004 31 81 1.6 9.7 0.00 0.00 0.00 76 1017.3
20260902161502 31 128 1.6 4.8 0.00 0.00 0.00 76 1017.3
20260902161003 31 26 1.6 4.8 0.00 0.00 0.00 77 1017.3
20260902160005 31 145 3.2 6.4 0.00 0.00 0.00 78 1017.4
20260902155003 30 109 1.6 9.7 0.00 0.00 0.00 80 1017.4
20260902154503 30 74 0.0 4.8 0.00 0.00 0.00 80 1017.5
20260902153003 30 134 0.0 3.2 0.00 0.00 0.00 80 1017.4
20260902152503 30 17 1.6 3.2 0.00 0.00 0.00 80 1017.5
20260902152002 30 114 1.6 4.8 0.00 0.00 0.00 81 1017.4
20260902151503 30 169 1.6 4.8 0.00 0.00 0.00 81 1017.3
20260902151003 30 115 1.6 4.8 0.00 0.00 0.00 81 1017.3
20260902150503 29 70 1.6 6.4 0.00 0.00 0.00 82 1017.2
20260902145504 29 49 3.2 9.7 0.00 0.00 0.00 82 1017.2
20260902145003 29 61 1.6 6.4 0.00 0.00 0.00 83 1017.3
20260902144503 29 277 1.6 11.3 0.00 0.00 0.00 83 1017.3
20260902144004 28 146 1.6 11.3 0.00 0.00 0.00 84 1017.3
20260902143504 28 237 1.6 9.7 0.00 0.00 0.00 85 1017.2
20260902142503 27 88 1.6 6.4 0.00 0.00 0.00 86 1017.2
20260902141004 27 98 1.6 6.4 0.00 0.00 0.00 89 1017.0
20260902140503 27 98 1.6 8.0 0.00 0.00 0.00 89 1017.0
20260902135503 26 148 1.6 3.2 0.00 0.00 0.00 90 1017.0
20260902135004 26 141 1.6 9.7 0.00 0.00 0.00 90 1016.9
20260902134502 26 184 1.6 9.7 0.00 0.00 0.00 90 1016.9
20260902134003 26 137 1.6 6.4 0.00 0.00 0.00 91 1017.0
20260902133502 26 106 1.6 4.8 0.00 0.00 0.00 91 1016.9
20260902132503 26 136 0.0 11.3 0.00 0.00 0.00 92 1016.9
20260902132003 25 105 0.0 11.3 0.00 0.00 0.00 92 1017.0
20260902131503 25 96 0.0 0.0 0.00 0.00 0.00 92 1017.0
20260902131004 25 86 0.0 0.0 0.00 0.00 0.00 92 1017.0
20260902130004 25 98 0.0 0.0 0.00 0.00 0.00 93 1016.9
20260902125503 25 121 0.0 0.0 0.00 0.00 0.00 93 1016.9
20260902125003 25 121 0.0 3.2 0.00 0.00 0.00 93 1016.8
20260902124504 25 163 0.0 3.2 0.00 0.00 0.00 93 1016.8
20260902124004 25 92 0.0 1.6 0.00 0.00 0.00 93 1016.8
20260902123504 25 92 1.6 4.8 0.00 0.00 0.00 93 1016.7
20260902123004 25 111 1.6 6.4 0.00 0.00 0.00 93 1016.6
20260902122504 25 92 1.6 6.4 0.00 0.00 0.00 93 1016.7
20260902122005 25 78 0.0 3.2 0.00 0.00 0.00 93 1016.6
20260902121504 25 80 0.0 3.2 0.00 0.00 0.00 93 1016.5
20260902121007 25 138 1.6 3.2 0.00 0.00 0.00 93 1016.4
20260902115503 25 101 0.0 4.8 0.00 0.00 0.00 93 1016.5
20260902115005 25 101 0.0 4.8 0.00 0.00 0.00 93 1016.5
20260902114503 24 71 0.0 0.0 0.00 0.00 0.00 93 1016.5
20260902114003 24 71 0.0 0.0 0.00 0.00 0.00 92 1016.4
20260902113503 24 71 0.0 0.0 0.00 0.00 0.00 93 1016.4
20260902113004 24 71 0.0 0.0 0.00 0.00 0.00 93 1016.4
20260902112503 24 71 0.0 0.0 0.00 0.00 0.00 93 1016.1
20260902112003 24 72 0.0 0.0 0.00 0.00 0.00 93 1016.1
20260902111503 24 72 0.0 0.0 0.00 0.00 0.00 93 1016.0
20260902110007 24 124 0.0 0.0 0.00 0.00 0.00 92 1015.7
20260902105503 24 124 0.0 0.0 0.00 0.00 0.00 92 1015.8
20260902105003 24 134 0.0 0.0 0.00 0.00 0.00 92 1016.0
20260902103500 24 137 0.0 0.0 0.00 0.00 0.00 92 1015.9
20260902102502 24 140 0.0 0.0 0.00 0.00 0.00 92 1016.0
20260902102003 24 39 0.0 0.0 0.00 0.00 0.00 92 1016.0
20260902101503 24 39 0.0 0.0 0.00 0.00 0.00 92 1016.0
20260902101003 24 39 0.0 0.0 0.00 0.00 0.00 92 1016.0
20260902100503 24 39 0.0 0.0 0.00 0.00 0.00 92 1015.9
20260902100004 24 39 0.0 0.0 0.00 0.00 0.00 92 1015.9
20260902095500 24 82 0.0 0.0 0.00 0.00 0.00 92 1015.9
20260902095003 24 82 0.0 0.0 0.00 0.00 0.00 92 1015.8
20260902094504 24 82 0.0 0.0 0.00 0.00 0.00 92 1015.7
20260902094004 24 82 0.0 0.0 0.00 0.00 0.00 91 1015.6
20260902093503 24 82 0.0 0.0 0.00 0.00 0.00 91 1015.7
20260902093004 24 82 0.0 0.0 0.00 0.00 0.00 91 1015.6
20260902092503 25 82 0.0 0.0 0.00 0.00 0.00 91 1015.7
20260902092003 25 82 0.0 0.0 0.00 0.00 0.00 91 1015.7
20260902091503 25 82 0.0 0.0 0.00 0.00 0.00 91 1015.6
20260902091004 25 82 0.0 0.0 0.00 0.00 0.00 91 1015.5
20260902090503 25 82 0.0 0.0 0.00 0.00 0.00 91 1015.5
20260902090005 25 82 0.0 0.0 0.00 0.00 0.00 91 1015.6
20260902085503 25 82 0.0 3.2 0.00 0.00 0.00 91 1015.6
20260902085004 25 161 0.0 3.2 0.00 0.00 0.00 91 1015.7
20260902084503 25 169 0.0 4.8 0.00 0.00 0.00 91 1015.7
20260902084004 25 201 0.0 3.2 0.00 0.00 0.00 91 1015.5
20260902083503 25 201 0.0 4.8 0.00 0.00 0.00 91 1015.5
20260902082004 25 81 0.0 1.6 0.00 0.00 0.00 91 1015.6
20260902081503 25 110 0.0 1.6 0.00 0.00 0.00 90 1015.6
20260902081004 25 124 0.0 0.0 0.00 0.00 0.00 90 1015.6
20260902080005 25 124 0.0 0.0 0.00 0.00 0.00 90 1015.6
20260902075503 25 125 0.0 3.2 0.00 0.00 0.00 90 1015.7
20260902075003 25 125 0.0 3.2 0.00 0.00 0.00 90 1015.7